This is the latest recevied weather packets stored in our database for station/object DC4THF-13. If no packets are shown the sender has not sent any weather packets the latest 10 day(s).
| Time | Temp. | Humidity | Pressure | Rain* | Wind** | Luminosity | Snow |
|---|---|---|---|---|---|---|---|
| 1777509166 | 0.56° C | 66% | 1027.7 hPa | 0 mm | - | - | - |
| 1777508563 | 0.56° C | 65% | 1027.7 hPa | 0 mm | - | - | - |
| 1777507959 | 0.56° C | 65% | 1027.6 hPa | 0 mm | - | - | - |
| 1777507356 | 1.11° C | 64% | 1027.6 hPa | 0 mm | - | - | - |
| 1777506753 | 1.11° C | 64% | 1027.5 hPa | 0 mm | - | - | - |
| 1777506149 | 1.11° C | 63% | 1027.6 hPa | 0 mm | - | - | - |
| 1777505546 | 1.11° C | 62% | 1027.5 hPa | 0 mm | - | - | - |
| 1777504943 | 1.11° C | 61% | 1027.3 hPa | 0 mm | - | - | - |
| 1777504340 | 1.11° C | 60% | 1027.3 hPa | 0 mm | - | - | - |
| 1777503737 | 1.67° C | 60% | 1027.2 hPa | 0 mm | - | - | - |
| 1777503194 | 1.67° C | 60% | 1027.1 hPa | 0 mm | - | - | - |
| 1777502591 | 1.67° C | 60% | 1027.1 hPa | 0 mm | - | - | - |
| 1777501988 | 2.22° C | 58% | 1027.2 hPa | 0 mm | - | - | - |
| 1777501384 | 2.22° C | 58% | 1027.1 hPa | 0 mm | - | - | - |
| 1777500781 | 2.22° C | 58% | 1026.9 hPa | 0 mm | - | - | - |
| 1777500178 | 2.22° C | 59% | 1026.9 hPa | 0 mm | - | - | - |
| 1777499574 | 2.78° C | 58% | 1026.9 hPa | 0 mm | - | - | - |
| 1777498970 | 2.78° C | 58% | 1026.8 hPa | 0 mm | - | - | - |
| 1777498366 | 2.78° C | 57% | 1026.7 hPa | 0 mm | - | - | - |
| 1777497762 | 2.78° C | 57% | 1026.7 hPa | 0 mm | - | - | - |
| 1777497158 | 3.33° C | 57% | 1026.7 hPa | 0 mm | - | - | - |
| 1777496555 | 3.33° C | 56% | 1026.6 hPa | 0 mm | - | - | - |
| 1777495951 | 3.33° C | 55% | 1026.5 hPa | 0 mm | - | - | - |
| 1777495347 | 3.89° C | 54% | 1026.3 hPa | 0 mm | - | - | - |
| 1777494743 | 3.89° C | 55% | 1026.2 hPa | 0 mm | - | - | - |
* Rain latest hour (hover to see other rain measurements)
** Current wind speed in m/s (hover to see current wind gust speed)